Location: Trout Lake
(45.9980°N, 121.5270°W)
Time: 20:44:57
(UTC-08:00)

Cosmos 676 Rocket - Pass Details

Date: 06 December 2023
Orbit: 753 x 781 km, 74.0° (Epoch: 22 February)

Event Time Altitude Azimuth Distance (km) Brightness Sun altitude
Rises 18:15:45 0° 340° (NNW) 3,268 7.4 -19.1°
Reaches altitude 10° 18:18:10 10° 343° (NNW) 2,333 6.5 -19.5°
Maximum altitude 18:23:27 65° 66° (ENE) 848 3.9 -20.4°
Drops below altitude 10° 18:28:38 10° 148° (SSE) 2,299 6.3 -21.3°
Enters shadow 18:28:50 - 149° (SSE) 2,373 6.3 -21.3°
